Regional Weather Roundup
Issued by NWS

Home | Current Version | Previous Version | Graphics & Text | Print | Product List | Glossary On
Versions: 1 2 3 4 5 6 7 8 9 10 11 12 13 14 15 16 17 18 19 20 21 22 23 24 25 26 27 28 29 30 31 32 33 34 35 36 37 38 39 40 41 42 43 44 45 46 47 48 49 50
000
ASUS43 KLOT 242012
RWRIL

ILLINOIS REGIONAL WEATHER ROUNDUP
NATIONAL WEATHER SERVICE CHICAGO/ROMEOVILLE IL
200 PM CST FRI FEB 24 2017

NOTE: "FAIR" INDICATES FEW OR NO CLOUDS BELOW 12,000 FEET WITH NO
SIGNIFICANT WEATHER AND/OR OBSTRUCTIONS TO VISIBILITY.

* THESE STATIONS ARE NOT UNDER NWS QUALITY CONTROL. THEY ALSO MAY NOT
  REPORT WEATHER SUCH AS PRECIPITATION OR FOG.

ILZ001-002-007-009-015-016-024-242100-
NORTHWEST ILLINOIS

CITY           SKY/WX    TMP DP  RH WIND       PRES   REMARKS
MOLINE         CLOUDY    41  36  82 NW8       29.53S HAZE
STERLING*      LGT RAIN  38  37  97 N10       29.51R FOG     WCI  31
$$

ILZ003-004-008-010-011-017-018-242100-
NORTH CENTRAL ILLINOIS

CITY           SKY/WX    TMP DP  RH WIND       PRES   REMARKS
ROCKFORD       DRIZZLE   38  35  89 N16       29.49S FOG     WCI  29
FREEPORT*      CLOUDY    34  33  96 N14       29.51S FOG     WCI  25
ROCHELLE*      CLOUDY    37  37  97 N13       29.48R FOG     WCI  29
DE KALB*       CLOUDY    38  38  97 N13       29.46R FOG     WCI  30
PERU*          CLOUDY    43  42  94 W10       29.49R FOG
$$

ILZ005-006-012>014-019>023-242100-
NORTHEAST ILLINOIS

CITY           SKY/WX    TMP DP  RH WIND       PRES   REMARKS
CHICAGO-OHARE  CLOUDY    40  37  89 N12       29.44S
CHICAGO-MIDWAY CLOUDY    41  38  89 N9        29.44S
AURORA         CLOUDY    42  40  92 NE9       29.45R
LANSING*       CLOUDY    40  40 100 NE7       29.44R
JOLIET*        CLOUDY    48  46  90 CALM      29.45R
WAUKEGAN       CLOUDY    37  36  96 N12G18    29.45S FOG     WCI  29
DUPAGE AIRPORT CLOUDY    40  37  89 N7        29.45R
KANKAKEE*      CLOUDY    65  55  70 W22G30    29.45R
WHEELING       CLOUDY    38  36  92 N9        29.47S WCI  31
MORRIS*        CLOUDY    48  46  92 CALM      29.44R FOG
ROMEOVILLE*    CLOUDY    44  44 100 NE6       29.45R
NORTHERLY ISL    N/A     40  38  93 MISG        N/A
$$

LMZ740>746-242100-
SOUTHERN LAKE MICHIGAN

STATION/POSITION SKY/WX   TEMP    WIND        PRES    VSBY  WAVE
                          AIR SEA DIR/SP/G                  HT/PER
                          (F)     (DEG/KT/KT) (MB)    (MI)  (FT/S)
HARRISON CRIB              37     330/ 19/ 22   N/A
BURNHAM HARBOR             40      10/  9/ 11   N/A
CALUMET HARBOR             39     340/  9/ 13  996.7F
BURNS HARBOR               37     250/  6/  8  997.6F
MICHIGAN CITY              37     220/ 11/ 12   N/A
$$

ILZ025>027-034>036-040-047-049-050-058-095>099-242100-
WEST-CENTRAL ILLINOIS

CITY           SKY/WX    TMP DP  RH WIND       PRES   REMARKS
QUINCY         CLOUDY    45  38  76 W13G18    29.59S
GALESBURG*     CLOUDY    41  38  91 W14       29.54R
MACOMB*        CLOUDY    43  39  87 W18G24    29.59R
JACKSONVILLE*  CLOUDY    49  41  74 W17G23    29.58R
PITTSFIELD*    CLOUDY    46  41  82 W10G20    29.61R
$$

ILZ028>032-037-038-041>044-048-051>054-059>061-242100-
CENTRAL ILLINOIS

CITY           SKY/WX    TMP DP  RH WIND       PRES   REMARKS
PONTIAC        CLOUDY    57  51  79 W18G25    29.48R
BLOOMINGTON    MOSUNNY   55  44  66 W26G33    29.50R
DECATUR        CLOUDY    52  46  80 W13       29.54R
PEORIA         CLOUDY    45  41  86 W13G24    29.54R
LACON*         CLOUDY    44  42  93 W13       29.51R
LINCOLN*       PTSUNNY   55  44  66 W10G21    29.54R
SPRINGFIELD    CLOUDY    52  41  66 W20G29    29.57R
TAYLORVILLE    CLOUDY    51  46  83 W17G26    29.57R
$$

ILZ033-039-045-046-055>057-062-063-242100-
EAST-CENTRAL ILLINOIS

CITY           SKY/WX    TMP DP  RH WIND       PRES   REMARKS
CHAMPAIGN      PTSUNNY   59  48  67 W28G35    29.50R
RANTOUL*       CLOUDY    60  51  71 W21G31    29.50R
MATTOON        CLOUDY    59  52  77 W20       29.51R
PARIS*         CLOUDY    66  56  70 S18G24    29.50R
$$

ILZ079-100>102-242100-
SOUTHWEST ILLINOIS

CITY           SKY/WX    TMP DP  RH WIND       PRES   REMARKS
ALTON          CLOUDY    52  43  71 W12G21    29.61R
BELLEVILLE     CLOUDY    59  47  63 SW8G17    29.59R
CAHOKIA*       CLOUDY    57  41  55 NW20      29.62R
SPARTA*        CLOUDY    59  49  70 W12G21    29.60S
$$

ILZ064>066-069>071-074>076-080>082-084>086-088>090-092>094-242100-
SOUTH-CENTRAL ILLINOIS

CITY           SKY/WX    TMP DP  RH WIND       PRES   REMARKS
CARBONDALE     CLOUDY    66  55  67 SW12      29.54F
CAIRO*         CLOUDY    64  56  74 S14G23    29.60F
EFFINGHAM*     CLOUDY    61  54  78 W14       29.55R
MARION         CLOUDY    68  57  68 SW16G23   29.58R
MT. VERNON     CLOUDY    66  54  65 SW21G26   29.54S
CENTRALIA*     CLOUDY    60  52  75 W16G22    29.56R
SALEM*         CLOUDY    61  51  70 W20       29.57R
METROPOLIS*    CLOUDY    67  55  66 SW16G29   29.60F
$$

ILZ067-068-072-073-078-083-087-091-242100-
SOUTHEAST ILLINOIS

CITY           SKY/WX    TMP DP  RH WIND       PRES   REMARKS
LAWRENCEVILLE  CLOUDY    70  53  54 SW21G30   29.52F
FLORA*         CLOUDY    68  55  62 SW17      29.54R
FAIRFIELD*     CLOUDY    68  55  64 SW6       29.54R
HARRISBURG*    CLOUDY    67  56  68 SW17G24   29.58R
ROBINSON*      CLOUDY    66  55  66 SW13      29.52R THUNDER
CARMI*         CLOUDY    69  55  60 SW20G25   29.56R
$$

ABBREVIATIONS USED IN REMARKS
   TC - TEMPERATURE IN CELSIUS
  WCI - WIND CHILL INDEX
   HX - HEAT INDEX
  VSB - VISIBILITY
$$





USA.gov is the U.S. government's official web portal to all federal, state and local government web resources and services.